Regional Weather Roundup
Issued by NWS

Home | Current Version | Previous Version | Text Only | Print | Product List | Glossary On
Versions: 1 2 3 4 5 6 7 8 9 10 11 12 13 14 15 16 17 18 19 20 21 22 23 24 25 26 27 28 29 30 31 32 33 34 35 36 37 38 39 40 41 42 43 44 45 46 47 48 49 50
006
ASUS44 KFWD 041815
RWRTX
NORTH TEXAS HOURLY WEATHER ROUNDUP
NATIONAL WEATHER SERVICE FORT WORTH TX
100 PM CDT WED MAY 04 2016

NOTE: "FAIR" INDICATES FEW OR NO CLOUDS BELOW 12,000 FEET WITH NO
SIGNIFICANT WEATHER AND/OR OBSTRUCTIONS TO VISIBILITY.

TXZ118-119-041900-
DALLAS/FORT WORTH METROPLEX

CITY           SKY/WX    TMP DP  RH WIND       PRES   REMARKS
DFW AIRPORT    SUNNY     78  49  35 NW20      30.04F
6HR MIN TEMP:  58; 6HR MAX TEMP:  79;

DALLAS LOVE    SUNNY     79  48  33 N14G24    30.04F
6HR MIN TEMP:  57; 6HR MAX TEMP:  79;

FTW MEACHAM    SUNNY     78  50  37 W15       30.05F
6HR MIN TEMP:  55; 6HR MAX TEMP:  78;

DAL-EXECUTIVE  SUNNY     77  49  37 NW22      30.03F
6HR MIN TEMP:  57; 6HR MAX TEMP:  77;

FTW-ALLIANCE   SUNNY     77  51  40 NW12      30.05F
6HR MIN TEMP:  48; 6HR MAX TEMP:  77;

FTW-NAS-JRB    SUNNY     78  49  35 NW13G18   30.06F
6HR MIN TEMP:  56; 6HR MAX TEMP:  78;

FTW-SPINKS     SUNNY     77  52  41 W13G23    30.07F
ARLINGTON      SUNNY     79  47  32 NW16      30.04F
6HR MIN TEMP:  54; 6HR MAX TEMP:  80;

GRAND PRAIRIE  SUNNY     79  45  29 NW7G18    30.06F
ADDISON        SUNNY     77  50  38 NW16G28   30.04F
MESQUITE       SUNNY     77  45  31 NW17G23   30.04F
LANCASTER      SUNNY     78  43  29 NW18      30.05F
6HR MIN TEMP:  51; 6HR MAX TEMP:  78;

$$

TXZ091>094-102>105-117-120-121-131>134-041900-
NORTH CENTRAL TEXAS

CITY           SKY/WX    TMP DP  RH WIND       PRES   REMARKS
SHRMAN/DENISON SUNNY     72  46  39 NW20G25   30.05F
6HR MIN TEMP:  48; 6HR MAX TEMP:  72;

GAINESVILLE    SUNNY     73  51  45 NW16G22   30.07F
6HR MIN TEMP:  50; 6HR MAX TEMP:  73;

BOWIE          SUNNY     74  48  40 W13       30.08F
6HR MIN TEMP:  53; 6HR MAX TEMP:  74;

BRIDGEPORT     SUNNY     76  51  42 NW10G17   30.09F
6HR MIN TEMP:  51; 6HR MAX TEMP:  76;

DECATUR        SUNNY     73  46  38 NW7G18    30.07F
6HR MIN TEMP:  53; 6HR MAX TEMP:  74;

DENTON         SUNNY     76  50  40 NW14      30.05F
6HR MIN TEMP:  50; 6HR MAX TEMP:  76;

MCKINNEY       SUNNY     77  48  35 NW14G25   30.03F
6HR MIN TEMP:  55; 6HR MAX TEMP:  78;

GREENVILLE     SUNNY     77  46  33 NW12G20   30.02F
ROCKWALL       SUNNY     77  50  39 N16G22    30.02F
6HR MIN TEMP:  56; 6HR MAX TEMP:  77;

WAXAHACHIE     SUNNY     77  50  38 NW15G21   30.06F
6HR MIN TEMP:  53; 6HR MAX TEMP:  77;

CLEBURNE       SUNNY     75  52  43 W15G21    30.08F
GRANBURY       SUNNY     78  49  36 W14       30.08F
6HR MIN TEMP:  49; 6HR MAX TEMP:  78;

$$

TXZ083>090-098>101-113>116-127>130-139>142-154-155-041900-
WESTERN NORTH TEXAS

CITY           SKY/WX    TMP DP  RH WIND       PRES   REMARKS
WICHITA FALLS  SUNNY     77  49  37 N16       30.08F
6HR MIN TEMP:  53; 6HR MAX TEMP:  77;

WF-KICKAPOO    SUNNY     77  44  31 N13G23    30.10F
6HR MIN TEMP:  55; 6HR MAX TEMP:  77;

VERNON         SUNNY     79  35  20 N12       30.11F
6HR MIN TEMP:  47; 6HR MAX TEMP:  79;

ABILENE        NOT AVBL
ABILENE-DYESS  SUNNY     74  46  36 N15G22    30.13F
6HR MIN TEMP:  48; 6HR MAX TEMP:  74; 6HR PCP:  0.01;

BRECKENRIDGE   SUNNY     76  46  33 N14G22    30.11F HAZE
6HR MIN TEMP:  52; 6HR MAX TEMP:  76;

GRAHAM         SUNNY     76  48  37 NW12G22   30.09F
6HR MIN TEMP:  45; 6HR MAX TEMP:  76;

MINERAL WELLS  SUNNY     77  51  40 NW12      30.07F
6HR MIN TEMP:  50; 6HR MAX TEMP:  77;

STEPHENVILLE   SUNNY     76  46  34 NW8       30.12F
6HR MIN TEMP:  56; 6HR MAX TEMP:  76;

COMANCHE       SUNNY     75  53  45 NW13      30.12S
6HR MIN TEMP:  56; 6HR MAX TEMP:  76; 6HR PCP:  0.01;

BROWNWOOD      SUNNY     75  48  38 NW12G17   30.12F
COLEMAN        SUNNY     75  44  33 N13       30.14
6HR MIN TEMP:  50; 6HR MAX TEMP:  75;

$$

TXZ143>147-156>162-174-175-041900-
CENTRAL TEXAS

CITY           SKY/WX    TMP DP  RH WIND       PRES   REMARKS
WACO           SUNNY     81  50  33 W10       30.06F
6HR MIN TEMP:  51; 6HR MAX TEMP:  81;

WACO-TSTC      SUNNY     81  50  34 NW7       30.05F
WACO-MCGREGOR  SUNNY     79  50  36 NW9G20    30.06F
6HR MIN TEMP:  51; 6HR MAX TEMP:  79;

HILLSBORO      SUNNY     76  53  43 NW15      30.06F
6HR MIN TEMP:  50; 6HR MAX TEMP:  76;

CORSICANA      SUNNY     78  55  44 NW16G22   30.05F
6HR MIN TEMP:  54; 6HR MAX TEMP:  79;

MEXIA          SUNNY     76  54  46 NW7G20    30.05F
6HR MIN TEMP:  54; 6HR MAX TEMP:  76;

HEARNE         SUNNY     77  55  45 NW7       30.07F
6HR MIN TEMP:  50; 6HR MAX TEMP:  77;

CAMERON        SUNNY     79  55  44 NW10      30.06F
6HR MIN TEMP:  54; 6HR MAX TEMP:  79;

TEMPLE         SUNNY     80  53  39 NW10G17   30.07F
6HR MIN TEMP:  49; 6HR MAX TEMP:  80;

KILLEEN        MOSUNNY   77  54  44 W12G20    30.07F
6HR MIN TEMP:  59; 6HR MAX TEMP:  78;

KILLEEN-SKYLRK MOSUNNY   79  51  37 NW15      30.08F
6HR MIN TEMP:  52; 6HR MAX TEMP:  79;

FORT HOOD      MOSUNNY   79  51  37 W12       30.05F
6HR MIN TEMP:  53; 6HR MAX TEMP:  79;

GATESVILLE     SUNNY     79  48  34 MISG      30.09F
HAMILTON       SUNNY     77  53  44 NW12G17   30.11F
6HR MIN TEMP:  53; 6HR MAX TEMP:  77;

LAMPASAS       SUNNY     77  54  45 W8        30.09F
6HR MIN TEMP:  53; 6HR MAX TEMP:  77;

$$

TXZ095>097-106>112-122>126-135>138-148>153-164>167-041900-
EAST TEXAS

CITY           SKY/WX    TMP DP  RH WIND       PRES   REMARKS
PARIS          SUNNY     75  52  43 NW14      30.00F
6HR MIN TEMP:  54; 6HR MAX TEMP:  75;

SULPHUR SPRNGS SUNNY     75  55  50 NW9       30.03F
MOUNT PLEASANT SUNNY     76  51  41 W12G20    30.01F
6HR MIN TEMP:  51; 6HR MAX TEMP:  76;

GILMER         MOSUNNY   76  53  45 W5        29.99F
MINEOLA        SUNNY     77  55  47 W10       30.02F
TYLER          SUNNY     77  53  43 NW12G22   30.02F
6HR MIN TEMP:  56; 6HR MAX TEMP:  78;

LONGVIEW       SUNNY     77  52  41 NW12      29.99F
6HR MIN TEMP:  52; 6HR MAX TEMP:  77;

MARSHALL       SUNNY     75  50  41 W10G17    30.01F
6HR MIN TEMP:  50; 6HR MAX TEMP:  75;

ATHENS         SUNNY     73  52  46 NW7       30.02F
PALESTINE      SUNNY     76  55  46 W13       30.05F
JACKSONVILLE   SUNNY     74  52  44 W13G18    30.05F
HENDERSON      SUNNY     75  53  46 NW10      30.02F
6HR MIN TEMP:  50; 6HR MAX TEMP:  76;

CENTER         FAIR      77  51  41 W7        30.00F
6HR MIN TEMP:  53; 6HR MAX TEMP:  77;

NACOGDOCHES    SUNNY     75  52  43 W10G17    30.02F
6HR MIN TEMP:  48; 6HR MAX TEMP:  75;

LUFKIN         SUNNY     77  52  41 NW8       30.02F
6HR MIN TEMP:  52; 6HR MAX TEMP:  77;

$$

SUPPLEMENTAL OBSERVATIONS (CENTRAL)

CITY           SKY/WX    TMP DP  RH WIND       PRES   REMARKS
LAKE TEXOMA      N/A     72  52  49 NW20        N/A
CADDO GRASSLND   N/A     79  54  41 NW6G18      N/A
PAT MAYSE LAKE   N/A     75  52  43 W12         N/A
ATHENS           N/A     79  54  41 NW7         N/A
LAKE LIMESTONE   N/A     79  55  44 W8G16       N/A
MCGREGOR         N/A     81  50  34 NW7G15      N/A
$$

SUPPLEMENTAL OBSERVATIONS (WEST)

CITY           SKY/WX    TMP DP  RH WIND       PRES   REMARKS
LBJ GRASSLAND    N/A     77  48  36 NW9G17      N/A
COMANCHE         N/A     75  54  46 NW13        N/A
HAMBY            N/A     75  45  33 N8          N/A
IVIE RESERVOIR   N/A     79  46  31 N10  C1F1C2F2C3F3C4F4C5F5C6F6C7F7C8F8C9!



USA.gov is the U.S. government's official web portal to all federal, state and local government web resources and services.